Overview Statistics Trail Chart Weather Telemetry Raw packets
 

This is the latest recevied weather packets stored in our database for station/object SA7AHC. If no packets are shown the sender has not sent any weather packets the latest 10 day(s).

<< 53 54 55 56 57 58 >>
Time Temp. Humidity Pressure Rain* Wind** Luminosity Snow
1787811062 12.22° C 98% 1027.2 hPa 0 mm - 37 W/m² -
1787810462 11.67° C 98% 1027.2 hPa 0 mm - 35 W/m² -
1787809858 11.11° C 98% 1027.3 hPa 0 mm - 33 W/m² -
1787809246 10.56° C 98% 1027.2 hPa 0 mm - 30 W/m² -
1787808640 10.56° C 98% 1027.1 hPa 0 mm - 28 W/m² -
1787808035 10° C 98% 1027.3 hPa 0 mm - 26 W/m² -
1787807437 8.89° C 97% 1027.2 hPa 0 mm - 25 W/m² -
1787806867 8.33° C 97% 1027.2 hPa 0 mm - 21 W/m² -
1787806232 8.33° C 97% 1027 hPa 0 mm - 18 W/m² -
1787805631 7.78° C 97% 1027 hPa 0 mm - 16 W/m² -
1787805031 7.78° C 97% 1026.9 hPa 0 mm - 12 W/m² -
1787804407 7.78° C 97% 1026.9 hPa 0 mm - 11 W/m² -
1787803807 7.78° C 97% 1026.9 hPa 0 mm - 7 W/m² -
1787803207 7.22° C 96% 1027.1 hPa 0 mm - 5 W/m² -
1787802607 7.22° C 96% 1027 hPa 0 mm - 0 W/m² -
1787801970 7.22° C 96% 1027 hPa 0 mm - 0 W/m² -
1787801373 7.22° C 96% 1027 hPa 0 mm - 0 W/m² -
1787800769 7.22° C 96% 1027 hPa 0 mm - 0 W/m² -
1787800170 7.22° C 96% 1027.1 hPa 0 mm - 0 W/m² -
1787799567 7.78° C 96% 1027.2 hPa 0 mm - 0 W/m² -
1787798965 7.78° C 96% 1027.3 hPa 0 mm - 0 W/m² -
1787798349 8.33° C 96% 1027.6 hPa 0 mm - 0 W/m² -
1787797742 8.33° C 96% 1027.4 hPa 0 mm - 0 W/m² -
1787797141 8.33° C 96% 1027.3 hPa 0 mm - 0 W/m² -
1787796544 8.33° C 96% 1027.4 hPa 0 mm - 0 W/m² -

* Rain latest hour (hover to see other rain measurements)
** Current wind speed in m/s (hover to see current wind gust speed)